TimeEST,TemperatureF,Dew PointF,Humidity,Sea Level PressureIn,VisibilityMPH,Wind Direction,Wind SpeedMPH,Gust SpeedMPH,PrecipitationIn,Events,Conditions,WindDirDegrees,DateUTC
12:55 AM,43.7,43.5,99,30.23,10.0,Calm,Calm,-,N/A,,Partly Cloudy,0,2013-01-20 05:55:00
1:55 AM,44.1,43.9,99,30.23,10.0,Calm,Calm,-,N/A,,Overcast,0,2013-01-20 06:55:00
2:55 AM,43.2,43.0,99,30.22,10.0,Calm,Calm,-,N/A,,Scattered Clouds,0,2013-01-20 07:55:00
3:06 AM,42.8,42.8,100,30.22,5.0,Calm,Calm,-,N/A,,Clear,0,2013-01-20 08:06:00
3:13 AM,42.8,42.8,100,30.22,8.0,Calm,Calm,-,N/A,,Clear,0,2013-01-20 08:13:00
3:47 AM,42.8,41.0,93,30.21,2.0,Calm,Calm,-,N/A,,Clear,0,2013-01-20 08:47:00
3:48 AM,42.8,41.0,93,30.21,1.8,Calm,Calm,-,N/A,,Clear,0,2013-01-20 08:48:00
3:49 AM,42.8,42.8,100,30.21,1.5,Calm,Calm,-,N/A,,Clear,0,2013-01-20 08:49:00
3:50 AM,42.8,42.8,100,30.21,1.2,Calm,Calm,-,N/A,,Clear,0,2013-01-20 08:50:00
3:52 AM,42.8,42.8,100,30.21,1.0,Calm,Calm,-,N/A,,Clear,0,2013-01-20 08:52:00
3:53 AM,42.8,42.8,100,30.21,1.0,Calm,Calm,-,N/A,,Clear,0,2013-01-20 08:53:00
3:54 AM,42.8,42.8,100,30.21,1.0,Calm,Calm,-,N/A,,Clear,0,2013-01-20 08:54:00
3:55 AM,42.1,41.9,99,30.21,1.0,Calm,Calm,-,N/A,,Clear,0,2013-01-20 08:55:00
3:57 AM,42.8,41.0,93,30.21,1.2,Calm,Calm,-,N/A,,Clear,0,2013-01-20 08:57:00
3:58 AM,42.8,41.0,93,30.21,1.2,Calm,Calm,-,N/A,,Clear,0,2013-01-20 08:58:00
3:59 AM,42.8,41.0,93,30.21,1.5,Calm,Calm,-,N/A,,Clear,0,2013-01-20 08:59:00
4:00 AM,42.8,41.0,93,30.21,1.8,Calm,Calm,-,N/A,,Clear,0,2013-01-20 09:00:00
4:01 AM,42.8,41.0,93,30.21,2.0,Calm,Calm,-,N/A,,Clear,0,2013-01-20 09:01:00
4:03 AM,42.8,41.0,93,30.21,3.0,Calm,Calm,-,N/A,,Clear,0,2013-01-20 09:03:00
4:10 AM,42.8,42.8,100,30.21,6.0,Calm,Calm,-,N/A,,Clear,0,2013-01-20 09:10:00
4:12 AM,42.8,41.0,93,30.21,2.5,Calm,Calm,-,N/A,,Clear,0,2013-01-20 09:12:00
4:14 AM,42.8,41.0,93,30.21,1.8,Calm,Calm,-,N/A,,Clear,0,2013-01-20 09:14:00
4:16 AM,41.0,41.0,100,30.21,1.5,Calm,Calm,-,N/A,,Clear,0,2013-01-20 09:16:00
4:21 AM,41.0,41.0,100,30.21,1.5,Calm,Calm,-,N/A,,Clear,0,2013-01-20 09:21:00
4:22 AM,41.0,41.0,100,30.21,2.0,Calm,Calm,-,N/A,,Clear,0,2013-01-20 09:22:00
4:24 AM,41.0,41.0,100,30.21,3.0,Calm,Calm,-,N/A,,Clear,0,2013-01-20 09:24:00
4:36 AM,41.0,41.0,100,30.21,8.0,Calm,Calm,-,N/A,,Clear,0,2013-01-20 09:36:00
4:39 AM,41.0,41.0,100,30.21,9.0,Calm,Calm,-,N/A,,Clear,0,2013-01-20 09:39:00
4:55 AM,41.4,41.2,99,30.20,10.0,Calm,Calm,-,N/A,,Clear,0,2013-01-20 09:55:00
5:34 AM,41.0,39.2,93,30.20,8.0,Calm,Calm,-,N/A,,Clear,0,2013-01-20 10:34:00
5:36 AM,41.0,41.0,100,30.20,8.0,Calm,Calm,-,N/A,,Clear,0,2013-01-20 10:36:00
5:55 AM,39.7,39.6,99,30.21,10.0,Calm,Calm,-,N/A,,Clear,0,2013-01-20 10:55:00
6:55 AM,40.1,39.9,99,30.22,10.0,Calm,Calm,-,N/A,,Clear,0,2013-01-20 11:55:00
7:55 AM,40.6,39.7,97,30.22,10.0,Calm,Calm,-,N/A,,Clear,0,2013-01-20 12:55:00
8:55 AM,46.9,46.8,99,30.21,10.0,Calm,Calm,-,N/A,,Clear,0,2013-01-20 13:55:00
9:55 AM,54.0,48.4,81,30.24,10.0,NNW,11.5,-,N/A,,Clear,330,2013-01-20 14:55:00
10:55 AM,60.4,46.9,61,30.22,10.0,NNW,6.9,-,N/A,,Clear,340,2013-01-20 15:55:00
11:55 AM,64.2,45.1,50,30.18,10.0,WNW,8.1,-,N/A,,Clear,290,2013-01-20 16:55:00
12:55 PM,66.2,44.4,45,30.13,10.0,WNW,10.4,-,N/A,,Clear,300,2013-01-20 17:55:00
1:55 PM,67.5,43.3,42,30.11,10.0,West,10.4,-,N/A,,Clear,260,2013-01-20 18:55:00
2:55 PM,67.8,42.4,40,30.09,10.0,West,9.2,-,N/A,,Clear,280,2013-01-20 19:55:00
3:55 PM,67.8,41.2,38,30.09,10.0,WNW,3.5,-,N/A,,Clear,290,2013-01-20 20:55:00
4:55 PM,67.1,41.7,40,30.09,10.0,West,5.8,-,N/A,,Clear,280,2013-01-20 21:55:00
5:55 PM,59.7,44.8,58,30.10,10.0,Calm,Calm,-,N/A,,Clear,0,2013-01-20 22:55:00
6:55 PM,52.2,44.8,76,30.11,10.0,Calm,Calm,-,N/A,,Clear,0,2013-01-20 23:55:00
7:55 PM,47.8,43.5,85,30.12,10.0,Calm,Calm,-,N/A,,Clear,0,2013-01-21 00:55:00
8:55 PM,46.0,42.4,87,30.12,10.0,Calm,Calm,-,N/A,,Clear,0,2013-01-21 01:55:00
9:55 PM,43.5,41.5,93,30.13,10.0,Calm,Calm,-,N/A,,Clear,0,2013-01-21 02:55:00
10:55 PM,42.6,40.6,93,30.12,10.0,Calm,Calm,-,N/A,,Clear,0,2013-01-21 03:55:00
11:55 PM,41.7,40.1,94,30.12,10.0,Calm,Calm,-,N/A,,Clear,0,2013-01-21 04:55:00